Aérodrome :
LOGIN :

S'inscrire | Disclaimer

   EN    FR    IT 

 










Légende :    VFR   VFR Marginal   IFR   IFR Intensif   IFR Très Intensif
Visi : 
Plafond : 
>= 8 km
>= 3000ft
5 à 8 km
1000 à 3000 ft
1500m à 5 km
500 à 1000 ft
800 à 1500m
200 à 500 ft
< 800m
< 200 ft
Symboles :   Orages  Brouillard  Fortes neiges  Fortes précipitations  Vent > 20 kt
SIGMETs :   Divers  Orages  Givrage  Turbulence  Onde Orograph.  Cendres Volcan.







- Altitude de l'aérodrome : 80 ft
- Code IATA : LPL
- Voir les cartes d'approche


EGGP - Liverpool John Lennon

DERNIER METAR :
  • 231120Z 30013KT 260V330 9999 FEW019 17/09 Q1030

METARs EXPIRÉS :
  • 231050Z 29013KT 260V330 9999 FEW019 17/10 Q1029
  • 231020Z 30011KT 260V340 9999 FEW019 17/10 Q1030
  • 230950Z 29011KT 9999 FEW019 16/10 Q1030
  • 230920Z 31010KT 260V340 9999 FEW017 17/10 Q1030
  • 230850Z 31010KT 280V340 9999 FEW018 16/09 Q1030

TAF TAF EGGP
Valide du 23 à 12h jusqu'au 24 à 12h UTC


231050Z 2312/2412 30006KT CAVOK
ATIS : +44 151 907 2000 (option 5 or ext 5150)
Météo : +44 871 750 5150
Pas de NOTAMs connus pour ce terrain.



MET'MAP, la Météo Aéronautique d'un coup d'oeil ! - Copyright ORBIFLY Décembre 2007 - Disclaimer

ORBIFLY MET'MAP TEAM :

Programmation & Développement : Alexandra Zaïnal
Conception & Développement : Baudouin d'Aumeries
Co-Programmation & Développement : Marc-Olivier Méhu
Soutien technique & logistique : Manuel Goepfert

Contact : metmap@orbifly.com




SOURCES & CREDITS :

   NOAA